| time (UTC) | temp F | wind direction | speed knots | gust knots | rain 1hr in | rain 24hr in | rain mn in | humidity % | barometer mb |
| 20260506204957 | 54 | 246 | 0.0 | 0.9 | 0.00 | 0.01 | 0.01 | 84 | 1022.6 |
| 20260506204455 | 54 | 262 | 0.9 | 0.9 | 0.00 | 0.01 | 0.01 | 86 | 1022.6 |
| 20260506203947 | 53 | 43 | 1.7 | 2.6 | 0.00 | 0.01 | 0.01 | 86 | 1022.3 |
| 20260506203444 | 53 | 121 | 0.0 | 2.6 | 0.00 | 0.01 | 0.01 | 87 | 1022.6 |
| 20260506202941 | 54 | 168 | 0.9 | 2.6 | 0.00 | 0.01 | 0.01 | 88 | 1022.6 |
| 20260506202438 | 53 | 99 | 0.0 | 0.9 | 0.00 | 0.01 | 0.01 | 89 | 1022.6 |
| 20260506201935 | 53 | 39 | 1.7 | 2.6 | 0.00 | 0.01 | 0.01 | 89 | 1022.6 |
| 20260506201432 | 53 | 105 | 0.0 | 2.6 | 0.00 | 0.01 | 0.01 | 90 | 1022.6 |
| 20260506200929 | 52 | 90 | 0.9 | 2.6 | 0.00 | 0.01 | 0.01 | 89 | 1022.6 |
| 20260506200425 | 53 | 124 | 0.9 | 1.7 | 0.00 | 0.01 | 0.01 | 90 | 1022.6 |
| 20260506195922 | 52 | 64 | 0.0 | 2.6 | 0.00 | 0.01 | 0.01 | 90 | 1022.3 |
| 20260506195419 | 52 | 254 | 1.7 | 1.7 | 0.00 | 0.01 | 0.01 | 90 | 1022.3 |
| 20260506194915 | 52 | 339 | 1.7 | 2.6 | 0.00 | 0.01 | 0.01 | 90 | 1022.3 |
| 20260506194413 | 52 | 289 | 2.6 | 3.5 | 0.00 | 0.01 | 0.01 | 90 | 1022.3 |
| 20260506193909 | 51 | 68 | 0.0 | 2.6 | 0.00 | 0.01 | 0.01 | 91 | 1022.3 |
| 20260506193407 | 51 | 121 | 0.0 | 2.6 | 0.00 | 0.01 | 0.01 | 91 | 1022.3 |
| 20260506192903 | 51 | 45 | 0.9 | 2.6 | 0.00 | 0.01 | 0.01 | 91 | 1022.3 |
| 20260506192400 | 51 | 126 | 0.9 | 2.6 | 0.00 | 0.01 | 0.01 | 92 | 1022.3 |
| 20260506191856 | 51 | 295 | 1.7 | 2.6 | 0.00 | 0.01 | 0.01 | 92 | 1022.3 |
| 20260506191353 | 51 | 24 | 1.7 | 2.6 | 0.00 | 0.01 | 0.01 | 92 | 1022.3 |
| 20260506190850 | 52 | 86 | 0.0 | 1.7 | 0.00 | 0.01 | 0.01 | 93 | 1021.9 |
| 20260506190346 | 51 | 114 | 0.0 | 1.7 | 0.00 | 0.01 | 0.01 | 93 | 1021.9 |
| 20260506185843 | 51 | 66 | 0.9 | 1.7 | 0.00 | 0.01 | 0.01 | 93 | 1021.9 |
| 20260506185340 | 51 | 34 | 1.7 | 2.6 | 0.00 | 0.01 | 0.01 | 93 | 1021.9 |
| 20260506184837 | 50 | 330 | 1.7 | 6.1 | 0.00 | 0.01 | 0.01 | 93 | 1021.9 |
| 20260506184334 | 50 | 97 | 0.9 | 0.9 | 0.00 | 0.01 | 0.01 | 93 | 1021.9 |
| 20260506183832 | 50 | 79 | 1.7 | 2.6 | 0.00 | 0.01 | 0.01 | 93 | 1021.9 |
| 20260506183327 | 50 | 158 | 1.7 | 2.6 | 0.00 | 0.01 | 0.01 | 93 | 1022.3 |
| 20260506182825 | 50 | 9 | 0.9 | 3.5 | 0.00 | 0.01 | 0.01 | 93 | 1021.9 |
| 20260506182321 | 50 | 95 | 0.0 | 2.6 | 0.00 | 0.01 | 0.01 | 93 | 1021.9 |
| 20260506181819 | 50 | 98 | 1.7 | 2.6 | 0.00 | 0.01 | 0.01 | 94 | 1021.9 |
| 20260506181317 | 50 | 48 | 1.7 | 1.7 | 0.00 | 0.01 | 0.01 | 94 | 1021.9 |
| 20260506180814 | 50 | 70 | 0.9 | 3.5 | 0.00 | 0.01 | 0.01 | 94 | 1021.9 |
| 20260506180310 | 50 | 81 | 1.7 | 5.2 | 0.00 | 0.01 | 0.01 | 94 | 1021.9 |
| 20260506175806 | 50 | 281 | 2.6 | 3.5 | 0.00 | 0.01 | 0.01 | 94 | 1021.9 |
| 20260506175306 | 51 | 66 | 0.0 | 1.7 | 0.00 | 0.01 | 0.01 | 94 | 1021.9 |
| 20260506174801 | 50 | 90 | 0.9 | 2.6 | 0.00 | 0.01 | 0.01 | 94 | 1021.6 |
| 20260506174258 | 50 | 17 | 1.7 | 2.6 | 0.00 | 0.01 | 0.01 | 94 | 1021.6 |
| 20260506173755 | 50 | 4 | 0.0 | 1.7 | 0.00 | 0.01 | 0.01 | 94 | 1021.6 |
| 20260506173252 | 50 | 4 | 0.0 | 1.7 | 0.00 | 0.01 | 0.01 | 94 | 1021.6 |
| 20260506172749 | 50 | 57 | 1.7 | 1.7 | 0.00 | 0.01 | 0.01 | 94 | 1021.6 |
| 20260506172245 | 50 | 98 | 0.0 | 1.7 | 0.00 | 0.01 | 0.01 | 95 | 1021.6 |
| 20260506171743 | 50 | 128 | 0.9 | 0.9 | 0.00 | 0.01 | 0.01 | 95 | 1021.6 |
| 20260506171240 | 50 | 75 | 0.9 | 1.7 | 0.00 | 0.01 | 0.01 | 95 | 1021.6 |
| 20260506170738 | 50 | 94 | 0.0 | 0.9 | 0.00 | 0.01 | 0.01 | 95 | 1021.3 |
| 20260506170234 | 50 | 100 | 0.0 | 2.6 | 0.00 | 0.01 | 0.01 | 95 | 1021.3 |
| 20260506165732 | 50 | 113 | 0.0 | 0.9 | 0.00 | 0.01 | 0.01 | 95 | 1020.9 |
| 20260506165229 | 50 | 86 | 0.0 | 1.7 | 0.00 | 0.01 | 0.01 | 95 | 1021.3 |
| 20260506164726 | 50 | 116 | 0.0 | 0.0 | 0.00 | 0.01 | 0.01 | 95 | 1021.3 |
| 20260506164223 | 50 | 104 | 0.0 | 0.0 | 0.00 | 0.01 | 0.01 | 95 | 1021.3 |
| 20260506163719 | 50 | 14 | 0.9 | 1.7 | 0.00 | 0.01 | 0.01 | 95 | 1021.3 |
| 20260506163209 | 50 | 297 | 1.7 | 2.6 | 0.07 | 0.01 | 0.01 | 95 | 1021.3 |
| 20260506162705 | 49 | 101 | 0.0 | 1.7 | 0.00 | 0.00 | 0.00 | 95 | 1021.3 |
| 20260506162203 | 50 | 94 | 0.0 | 0.9 | 0.00 | 0.00 | 0.00 | 95 | 1021.3 |
| 20260506161700 | 50 | 85 | 0.0 | 1.7 | 0.00 | 0.00 | 0.00 | 95 | 1021.6 |
| 20260506161156 | 50 | 74 | 1.7 | 3.5 | 0.00 | 0.00 | 0.00 | 95 | 1021.6 |
| 20260506160654 | 50 | 96 | 0.9 | 2.6 | 0.00 | 0.00 | 0.00 | 95 | 1021.6 |
| 20260506160151 | 50 | 103 | 0.0 | 0.0 | 0.00 | 0.00 | 0.00 | 95 | 1021.6 |
| 20260506155649 | 51 | 77 | 0.9 | 1.7 | 0.00 | 0.00 | 0.00 | 95 | 1021.6 |
| 20260506155146 | 51 | 80 | 0.9 | 1.7 | 0.00 | 0.00 | 0.00 | 95 | 1021.3 |
| 20260506153248 | 51 | 97 | 0.0 | 0.0 | 0.00 | 0.00 | 0.00 | 95 | 1021.3 |
| 20260506152745 | 51 | 109 | 0.0 | 0.0 | 0.00 | 0.00 | 0.00 | 95 | 1021.3 |
| 20260506152242 | 51 | 102 | 0.0 | 0.0 | 0.00 | 0.00 | 0.00 | 95 | 1020.9 |
| 20260506151741 | 50 | 99 | 0.0 | 0.0 | 0.00 | 0.00 | 0.00 | 95 | 1020.9 |
| 20260506151237 | 50 | 109 | 0.0 | 0.0 | 0.00 | 0.00 | 0.00 | 95 | 1020.9 |
| 20260506150734 | 50 | 105 | 0.0 | 0.9 | 0.00 | 0.00 | 0.00 | 95 | 1020.9 |
| 20260506150231 | 50 | 102 | 0.0 | 0.0 | 0.00 | 0.00 | 0.00 | 95 | 1020.9 |
| 20260506145728 | 50 | 100 | 0.0 | 0.9 | 0.00 | 0.00 | 0.00 | 95 | 1020.6 |
| 20260506145225 | 50 | 103 | 0.9 | 0.9 | 0.00 | 0.00 | 0.00 | 95 | 1020.9 |
| 20260506144722 | 51 | 106 | 0.9 | 0.9 | 0.00 | 0.00 | 0.00 | 95 | 1020.6 |
| 20260506144219 | 51 | 135 | 1.7 | 2.6 | 0.00 | 0.00 | 0.00 | 95 | 1020.6 |
| 20260506143716 | 51 | 118 | 0.9 | 0.9 | 0.00 | 0.00 | 0.00 | 95 | 1020.9 |
| 20260506143214 | 50 | 125 | 0.0 | 0.9 | 0.00 | 0.00 | 0.00 | 95 | 1020.9 |
| 20260506142713 | 50 | 103 | 0.0 | 0.9 | 0.00 | 0.00 | 0.00 | 95 | 1020.9 |
| 20260506142210 | 50 | 107 | 0.0 | 0.0 | 0.00 | 0.00 | 0.00 | 94 | 1020.9 |
| 20260506141708 | 50 | 109 | 0.0 | 0.9 | 0.00 | 0.00 | 0.00 | 94 | 1020.9 |
| 20260506141206 | 50 | 103 | 0.0 | 0.9 | 0.00 | 0.00 | 0.00 | 94 | 1020.9 |
| 20260506140703 | 50 | 138 | 0.0 | 0.9 | 0.00 | 0.00 | 0.00 | 94 | 1020.9 |
| 20260506140200 | 50 | 107 | 0.9 | 2.6 | 0.00 | 0.00 | 0.00 | 94 | 1020.6 |
| 20260506135657 | 50 | 108 | 1.7 | 2.6 | 0.00 | 0.00 | 0.00 | 94 | 1020.6 |
| 20260506135153 | 50 | 126 | 0.9 | 2.6 | 0.00 | 0.00 | 0.00 | 94 | 1020.6 |
| 20260506134650 | 50 | 116 | 0.9 | 0.9 | 0.00 | 0.00 | 0.00 | 94 | 1020.6 |
| 20260506134146 | 50 | 160 | 0.9 | 0.9 | 0.00 | 0.00 | 0.00 | 94 | 1020.6 |
| 20260506133643 | 50 | 112 | 0.0 | 0.9 | 0.00 | 0.00 | 0.00 | 93 | 1020.6 |
| 20260506133140 | 50 | 129 | 0.9 | 2.6 | 0.00 | 0.00 | 0.00 | 93 | 1020.6 |
| 20260506132637 | 50 | 107 | 0.9 | 0.9 | 0.00 | 0.00 | 0.00 | 93 | 1020.6 |
| 20260506132134 | 50 | 118 | 0.0 | 0.9 | 0.00 | 0.00 | 0.00 | 93 | 1020.2 |
| 20260506131632 | 50 | 106 | 0.0 | 0.0 | 0.00 | 0.00 | 0.00 | 93 | 1020.6 |
| 20260506131128 | 50 | 106 | 0.0 | 0.0 | 0.00 | 0.00 | 0.00 | 93 | 1020.6 |
| 20260506130625 | 50 | 106 | 0.0 | 0.0 | 0.00 | 0.00 | 0.00 | 93 | 1020.6 |
| 20260506130122 | 50 | 106 | 0.0 | 0.9 | 0.00 | 0.00 | 0.00 | 92 | 1020.6 |
| 20260506125620 | 50 | 105 | 0.9 | 0.9 | 0.00 | 0.00 | 0.00 | 92 | 1020.6 |
| 20260506125118 | 50 | 98 | 0.0 | 0.0 | 0.00 | 0.00 | 0.00 | 92 | 1020.6 |
| 20260506124615 | 50 | 97 | 0.0 | 0.9 | 0.00 | 0.00 | 0.00 | 92 | 1020.2 |
| 20260506124113 | 50 | 97 | 0.0 | 0.9 | 0.00 | 0.00 | 0.00 | 92 | 1020.2 |
| 20260506123610 | 50 | 97 | 0.0 | 0.9 | 0.00 | 0.00 | 0.00 | 92 | 1020.6 |
| 20260506123109 | 50 | 97 | 0.0 | 0.9 | 0.00 | 0.00 | 0.00 | 91 | 1020.6 |
| 20260506122605 | 50 | 97 | 0.0 | 0.0 | 0.00 | 0.00 | 0.00 | 91 | 1020.6 |
| 20260506122103 | 50 | 97 | 0.9 | 0.9 | 0.00 | 0.00 | 0.00 | 91 | 1020.2 |
| 20260506121601 | 50 | 97 | 0.0 | 0.0 | 0.00 | 0.00 | 0.00 | 91 | 1020.2 |
| 20260506121057 | 50 | 97 | 0.0 | 1.7 | 0.00 | 0.00 | 0.00 | 91 | 1020.2 |
| 20260506120555 | 50 | 88 | 0.0 | 0.0 | 0.00 | 0.00 | 0.00 | 91 | 1020.6 |
| 20260506120052 | 50 | 24 | 0.9 | 1.7 | 0.00 | 0.00 | 0.00 | 91 | 1020.2 |
| 20260506115550 | 50 | 100 | 0.0 | 0.0 | 0.00 | 0.00 | 0.00 | 91 | 1020.2 |
| 20260506115048 | 50 | 99 | 0.0 | 0.0 | 0.00 | 0.00 | 0.00 | 91 | 1020.2 |
| 20260506114545 | 50 | 98 | 0.0 | 0.0 | 0.00 | 0.00 | 0.00 | 91 | 1020.2 |
| 20260506114043 | 50 | 102 | 0.0 | 0.9 | 0.00 | 0.00 | 0.00 | 91 | 1020.2 |
| 20260506113541 | 50 | 81 | 0.0 | 0.9 | 0.00 | 0.00 | 0.00 | 91 | 1020.2 |
| 20260506113038 | 50 | 106 | 0.0 | 0.0 | 0.00 | 0.00 | 0.00 | 91 | 1020.2 |
| 20260506112534 | 50 | 106 | 0.0 | 0.0 | 0.00 | 0.00 | 0.00 | 91 | 1020.2 |
| 20260506112032 | 50 | 106 | 0.0 | 0.0 | 0.00 | 0.00 | 0.00 | 91 | 1020.2 |
| 20260506111530 | 50 | 106 | 0.0 | 0.0 | 0.00 | 0.00 | 0.00 | 91 | 1020.2 |
| 20260506111027 | 50 | 101 | 0.0 | 0.0 | 0.00 | 0.00 | 0.00 | 91 | 1020.2 |
| 20260506110524 | 50 | 97 | 0.0 | 0.0 | 0.00 | 0.00 | 0.00 | 91 | 1019.9 |
| 20260506110021 | 50 | 97 | 0.0 | 0.0 | 0.00 | 0.00 | 0.00 | 91 | 1019.9 |
| 20260506105517 | 50 | 118 | 0.0 | 0.0 | 0.00 | 0.00 | 0.00 | 91 | 1019.9 |
| 20260506105015 | 50 | 118 | 0.0 | 0.0 | 0.00 | 0.00 | 0.00 | 91 | 1019.9 |
| 20260506104513 | 50 | 116 | 0.0 | 0.9 | 0.00 | 0.00 | 0.00 | 90 | 1019.6 |
| 20260506104011 | 50 | 113 | 0.0 | 0.9 | 0.00 | 0.00 | 0.00 | 90 | 1019.6 |
| 20260506103507 | 50 | 123 | 0.0 | 0.9 | 0.00 | 0.00 | 0.00 | 90 | 1019.6 |
| 20260506103004 | 50 | 140 | 1.7 | 1.7 | 0.00 | 0.00 | 0.00 | 90 | 1019.6 |
| 20260506102503 | 50 | 130 | 0.0 | 0.0 | 0.00 | 0.00 | 0.00 | 90 | 1019.6 |
| 20260506101959 | 50 | 140 | 0.0 | 1.7 | 0.00 | 0.00 | 0.00 | 90 | 1019.6 |
| 20260506101455 | 50 | 124 | 0.0 | 0.0 | 0.00 | 0.00 | 0.00 | 91 | 1019.6 |
| 20260506100953 | 50 | 113 | 0.0 | 0.9 | 0.00 | 0.00 | 0.00 | 91 | 1019.6 |
| 20260506100451 | 50 | 139 | 0.9 | 1.7 | 0.00 | 0.00 | 0.00 | 91 | 1019.2 |
| 20260506095949 | 50 | 94 | 0.0 | 0.9 | 0.00 | 0.00 | 0.00 | 92 | 1019.2 |
| 20260506095448 | 50 | 166 | 0.0 | 0.9 | 0.00 | 0.00 | 0.00 | 92 | 1019.6 |
| 20260506094943 | 50 | 174 | 0.0 | 0.9 | 0.00 | 0.00 | 0.00 | 92 | 1019.6 |
| 20260506094441 | 50 | 175 | 0.9 | 1.7 | 0.00 | 0.00 | 0.00 | 92 | 1019.6 |
| 20260506093939 | 50 | 182 | 0.0 | 0.9 | 0.00 | 0.00 | 0.00 | 92 | 1019.6 |
| 20260506093437 | 50 | 145 | 0.0 | 0.0 | 0.00 | 0.00 | 0.00 | 92 | 1019.2 |
| 20260506092934 | 50 | 156 | 0.0 | 0.9 | 0.00 | 0.00 | 0.00 | 93 | 1019.2 |
| 20260506092432 | 50 | 147 | 0.0 | 1.7 | 0.00 | 0.00 | 0.00 | 93 | 1019.6 |
| 20260506091928 | 50 | 150 | 0.0 | 1.7 | 0.00 | 0.00 | 0.00 | 93 | 1019.2 |
| 20260506091427 | 50 | 149 | 0.0 | 0.9 | 0.00 | 0.00 | 0.00 | 93 | 1019.6 |
| 20260506090924 | 50 | 150 | 0.0 | 1.7 | 0.00 | 0.00 | 0.00 | 93 | 1019.2 |
| 20260506090421 | 50 | 96 | 0.0 | 0.9 | 0.00 | 0.00 | 0.00 | 93 | 1019.2 |
| 20260506085918 | 50 | 121 | 0.9 | 0.9 | 0.00 | 0.00 | 0.00 | 93 | 1019.2 |
| 20260506085414 | 49 | 113 | 0.9 | 0.9 | 0.00 | 0.00 | 0.00 | 93 | 1019.6 |
| 20260506084910 | 49 | 48 | 0.0 | 1.7 | 0.00 | 0.00 | 0.00 | 93 | 1019.6 |
| 20260506084408 | 49 | 112 | 0.0 | 0.9 | 0.00 | 0.00 | 0.00 | 93 | 1019.2 |
| 20260506083904 | 49 | 114 | 0.0 | 0.0 | 0.00 | 0.00 | 0.00 | 93 | 1019.2 |
| 20260506083402 | 48 | 98 | 0.0 | 0.0 | 0.00 | 0.00 | 0.00 | 93 | 1019.6 |
| 20260506082859 | 48 | 96 | 0.0 | 0.0 | 0.00 | 0.00 | 0.00 | 93 | 1019.2 |
| 20260506082355 | 48 | 85 | 0.0 | 0.0 | 0.00 | 0.00 | 0.00 | 93 | 1019.2 |
| 20260506081851 | 48 | 89 | 0.0 | 0.9 | 0.00 | 0.00 | 0.00 | 93 | 1019.2 |
| 20260506081349 | 48 | 98 | 0.0 | 0.0 | 0.00 | 0.00 | 0.00 | 93 | 1019.2 |
| 20260506080847 | 48 | 93 | 0.0 | 0.0 | 0.00 | 0.00 | 0.00 | 93 | 1019.2 |
| 20260506080344 | 48 | 93 | 0.0 | 0.9 | 0.00 | 0.00 | 0.00 | 93 | 1019.2 |
| 20260506073322 | 48 | 147 | 0.0 | 0.0 | 0.00 | 0.00 | 0.00 | 92 | 1018.9 |
| 20260506072818 | 48 | 107 | 0.0 | 0.0 | 0.00 | 0.00 | 0.00 | 92 | 1018.5 |
| 20260506072316 | 49 | 123 | 0.0 | 0.0 | 0.00 | 0.00 | 0.00 | 91 | 1018.5 |
| 20260506071814 | 49 | 129 | 0.0 | 0.9 | 0.00 | 0.00 | 0.00 | 91 | 1018.5 |
| 20260506071312 | 49 | 75 | 0.9 | 1.7 | 0.00 | 0.00 | 0.00 | 91 | 1018.9 |
| 20260506070808 | 49 | 74 | 0.0 | 0.9 | 0.00 | 0.00 | 0.00 | 91 | 1018.5 |
| 20260506070305 | 49 | 98 | 0.0 | 0.9 | 0.00 | 0.00 | 0.00 | 91 | 1018.5 |
| 20260506062242 | 50 | 50 | 0.0 | 2.6 | 0.00 | 0.00 | 0.00 | 90 | 1018.5 |
| 20260506061738 | 50 | 318 | 0.9 | 3.5 | 0.00 | 0.00 | 0.00 | 90 | 1018.5 |
| 20260506061235 | 50 | 125 | 0.0 | 1.7 | 0.00 | 0.00 | 0.00 | 90 | 1018.5 |
| 20260506060733 | 50 | 317 | 0.9 | 0.9 | 0.00 | 0.00 | 0.00 | 90 | 1018.5 |
| 20260506060230 | 50 | 95 | 1.7 | 1.7 | 0.00 | 0.00 | 0.00 | 90 | 1018.5 |
| 20260506051156 | 51 | 70 | 0.9 | 6.1 | 0.00 | 0.00 | 0.00 | 89 | 1018.2 |
| 20260506050655 | 51 | 64 | 0.9 | 0.9 | 0.00 | 0.00 | 0.00 | 88 | 1018.2 |
| 20260506050152 | 51 | 1 | 0.9 | 1.7 | 0.00 | 0.00 | 0.00 | 88 | 1018.5 |
| 20260506044643 | 51 | 54 | 0.9 | 3.5 | 0.00 | 0.00 | 0.00 | 88 | 1018.2 |
| 20260506044140 | 51 | 45 | 0.9 | 1.7 | 0.00 | 0.00 | 0.00 | 88 | 1018.2 |
| 20260506043637 | 51 | 161 | 0.9 | 1.7 | 0.00 | 0.00 | 0.00 | 87 | 1018.2 |
| 20260506043135 | 51 | 232 | 0.9 | 1.7 | 0.00 | 0.00 | 0.00 | 87 | 1018.2 |
| 20260506042634 | 51 | 107 | 0.0 | 0.9 | 0.00 | 0.00 | 0.00 | 87 | 1018.2 |
| 20260506042131 | 51 | 2 | 0.0 | 0.9 | 0.00 | 0.00 | 0.00 | 87 | 1017.9 |
| 20260506041630 | 51 | 113 | 0.0 | 0.9 | 0.00 | 0.00 | 0.00 | 87 | 1017.9 |
| 20260506041126 | 51 | 127 | 0.0 | 0.9 | 0.00 | 0.00 | 0.00 | 86 | 1017.9 |
| 20260506040624 | 52 | 108 | 0.0 | 0.0 | 0.00 | 0.00 | 0.00 | 86 | 1017.9 |
| 20260506040120 | 52 | 60 | 0.0 | 0.9 | 0.00 | 0.00 | 0.00 | 86 | 1017.5 |
| 20260506035617 | 52 | 138 | 0.0 | 1.7 | 0.00 | 0.00 | 0.00 | 85 | 1017.5 |
| 20260506035114 | 52 | 261 | 0.0 | 0.9 | 0.00 | 0.00 | 0.00 | 85 | 1017.9 |
| 20260506034611 | 52 | 96 | 0.0 | 0.9 | 0.00 | 0.00 | 0.00 | 85 | 1017.5 |
| 20260506034108 | 53 | 122 | 0.0 | 0.9 | 0.00 | 0.00 | 0.00 | 84 | 1017.5 |
| 20260506033605 | 53 | 99 | 0.0 | 0.9 | 0.00 | 0.00 | 0.00 | 84 | 1017.5 |
| 20260506033102 | 53 | 142 | 0.0 | 0.0 | 0.00 | 0.00 | 0.00 | 83 | 1017.5 |
| 20260506032600 | 54 | 156 | 0.0 | 0.9 | 0.00 | 0.00 | 0.00 | 82 | 1017.2 |
| 20260506032056 | 54 | 105 | 0.0 | 0.9 | 0.00 | 0.00 | 0.00 | 82 | 1017.2 |
| 20260506031554 | 54 | 133 | 0.0 | 0.9 | 0.00 | 0.00 | 0.00 | 82 | 1017.5 |
| 20260506031050 | 54 | 56 | 0.9 | 0.9 | 0.00 | 0.00 | 0.00 | 81 | 1017.5 |
| 20260506030549 | 55 | 110 | 0.0 | 0.9 | 0.00 | 0.00 | 0.00 | 81 | 1017.5 |
| 20260506030046 | 55 | 117 | 0.0 | 0.9 | 0.00 | 0.00 | 0.00 | 80 | 1017.2 |
| 20260506025543 | 55 | 109 | 0.0 | 0.9 | 0.00 | 0.00 | 0.00 | 80 | 1017.5 |
| 20260506025038 | 55 | 75 | 0.9 | 2.6 | 0.00 | 0.00 | 0.00 | 80 | 1017.2 |
| 20260506024536 | 55 | 326 | 1.7 | 1.7 | 0.00 | 0.00 | 0.00 | 79 | 1017.5 |
| 20260506024032 | 56 | 98 | 0.0 | 0.9 | 0.00 | 0.00 | 0.00 | 79 | 1017.2 |
| 20260506023528 | 56 | 128 | 0.0 | 0.9 | 0.00 | 0.00 | 0.00 | 79 | 1017.5 |
| 20260506023026 | 56 | 71 | 0.9 | 1.7 | 0.00 | 0.00 | 0.00 | 78 | 1017.5 |
| 20260506022523 | 56 | 149 | 0.9 | 0.9 | 0.00 | 0.00 | 0.00 | 78 | 1017.5 |
| 20260506022021 | 56 | 110 | 0.0 | 2.6 | 0.00 | 0.00 | 0.00 | 78 | 1017.5 |
| 20260506021518 | 56 | 262 | 0.9 | 1.7 | 0.00 | 0.00 | 0.00 | 78 | 1017.2 |
| 20260506021015 | 56 | 7 | 0.9 | 2.6 | 0.00 | 0.00 | 0.00 | 78 | 1017.5 |
| 20260506020513 | 56 | 338 | 0.9 | 6.1 | 0.00 | 0.00 | 0.00 | 78 | 1017.5 |
| 20260506020010 | 57 | 317 | 1.7 | 2.6 | 0.00 | 0.00 | 0.00 | 77 | 1017.2 |
| 20260506015507 | 58 | 258 | 1.7 | 2.6 | 0.00 | 0.00 | 0.00 | 76 | 1017.2 |
| 20260506015004 | 58 | 48 | 0.9 | 3.5 | 0.00 | 0.00 | 0.00 | 75 | 1017.5 |
| 20260506014502 | 59 | 29 | 0.9 | 3.5 | 0.00 | 0.00 | 0.00 | 74 | 1017.5 |
| 20260506013957 | 59 | 69 | 0.9 | 2.6 | 0.00 | 0.00 | 0.00 | 74 | 1017.5 |
| 20260506013455 | 59 | 52 | 1.7 | 3.5 | 0.00 | 0.00 | 0.00 | 74 | 1017.5 |
| 20260506012951 | 59 | 83 | 0.9 | 6.1 | 0.00 | 0.00 | 0.00 | 74 | 1017.5 |
| 20260506012448 | 59 | 301 | 3.5 | 3.5 | 0.00 | 0.00 | 0.00 | 74 | 1017.5 |
| 20260506011945 | 59 | 102 | 0.9 | 2.6 | 0.00 | 0.00 | 0.00 | 74 | 1017.5 |
| 20260506011442 | 59 | 210 | 2.6 | 2.6 | 0.00 | 0.00 | 0.00 | 73 | 1017.5 |
| 20260506010939 | 59 | 110 | 0.9 | 5.2 | 0.00 | 0.00 | 0.00 | 74 | 1017.5 |
| 20260506010438 | 59 | 128 | 1.7 | 3.5 | 0.00 | 0.00 | 0.00 | 73 | 1017.5 |
| 20260506005933 | 59 | 354 | 1.7 | 2.6 | 0.00 | 0.00 | 0.00 | 73 | 1017.2 |
| 20260506005432 | 59 | 9 | 1.7 | 5.2 | 0.00 | 0.00 | 0.00 | 72 | 1017.5 |
| 20260506004926 | 60 | 297 | 3.5 | 7.0 | 0.00 | 0.00 | 0.00 | 73 | 1017.2 |
| 20260506004425 | 61 | 121 | 0.0 | 5.2 | 0.00 | 0.00 | 0.00 | 71 | 1017.5 |
| 20260506003920 | 61 | 321 | 1.7 | 3.5 | 0.00 | 0.00 | 0.00 | 70 | 1017.5 |
| 20260506003417 | 61 | 92 | 0.0 | 3.5 | 0.00 | 0.00 | 0.00 | 71 | 1017.5 |
| 20260506002914 | 60 | 73 | 0.9 | 2.6 | 0.00 | 0.00 | 0.00 | 71 | 1017.5 |
| 20260506002410 | 61 | 84 | 0.9 | 3.5 | 0.00 | 0.00 | 0.00 | 71 | 1017.5 |
| 20260506001905 | 62 | 27 | 1.7 | 1.7 | 0.00 | 0.00 | 0.00 | 68 | 1017.5 |
| 20260506001403 | 62 | 110 | 0.0 | 2.6 | 0.00 | 0.00 | 0.00 | 70 | 1017.5 |
| 20260506000900 | 62 | 97 | 0.9 | 1.7 | 0.00 | 0.00 | 0.00 | 70 | 1017.5 |
| 20260506000357 | 63 | 98 | 1.7 | 1.7 | 0.00 | 0.00 | 0.00 | 68 | 1017.5 |
| 20260505235854 | 63 | 84 | 0.9 | 1.7 | 0.00 | 0.00 | 0.00 | 69 | 1017.5 |
| 20260505235352 | 64 | 356 | 4.3 | 5.2 | 0.00 | 0.00 | 0.00 | 68 | 1017.5 |
| 20260505234848 | 64 | 351 | 1.7 | 3.5 | 0.00 | 0.00 | 0.00 | 67 | 1017.5 |
| 20260505234346 | 62 | 123 | 0.0 | 1.7 | 0.00 | 0.00 | 0.00 | 72 | 1017.5 |
| 20260505233843 | 62 | 213 | 1.7 | 2.6 | 0.00 | 0.00 | 0.00 | 72 | 1017.5 |
| 20260505233341 | 63 | 113 | 0.9 | 5.2 | 0.00 | 0.00 | 0.00 | 71 | 1017.9 |
| 20260505232838 | 63 | 311 | 0.9 | 1.7 | 0.00 | 0.00 | 0.00 | 70 | 1017.5 |
| 20260505232336 | 62 | 34 | 1.7 | 2.6 | 0.00 | 0.00 | 0.00 | 71 | 1017.9 |
| 20260505231832 | 63 | 289 | 2.6 | 3.5 | 0.00 | 0.00 | 0.00 | 71 | 1017.9 |
| 20260505231330 | 61 | 320 | 2.6 | 3.5 | 0.00 | 0.00 | 0.00 | 72 | 1017.5 |
| 20260505230828 | 62 | 71 | 1.7 | 2.6 | 0.00 | 0.00 | 0.00 | 71 | 1017.5 |
| 20260505230325 | 62 | 44 | 0.9 | 3.5 | 0.00 | 0.00 | 0.00 | 74 | 1017.5 |
| 20260505225821 | 63 | 20 | 1.7 | 3.5 | 0.00 | 0.00 | 0.00 | 71 | 1017.9 |
| 20260505225319 | 61 | 155 | 0.0 | 1.7 | 0.00 | 0.00 | 0.00 | 73 | 1017.9 |
| 20260505224813 | 61 | 68 | 0.9 | 1.7 | 0.00 | 0.00 | 0.00 | 74 | 1017.9 |
| 20260505224312 | 61 | 86 | 0.0 | 1.7 | 0.00 | 0.00 | 0.00 | 74 | 1017.9 |
| 20260505223808 | 60 | 58 | 1.7 | 2.6 | 0.00 | 0.00 | 0.00 | 75 | 1017.9 |
| 20260505223306 | 60 | 57 | 0.9 | 3.5 | 0.00 | 0.00 | 0.00 | 75 | 1017.9 |
| 20260505222801 | 64 | 82 | 0.9 | 0.9 | 0.00 | 0.00 | 0.00 | 69 | 1017.9 |
| 20260505222257 | 64 | 126 | 1.7 | 2.6 | 0.00 | 0.00 | 0.00 | 69 | 1017.9 |
| 20260505221755 | 64 | 106 | 0.9 | 1.7 | 0.00 | 0.00 | 0.00 | 71 | 1017.9 |
| 20260505221251 | 61 | 296 | 0.9 | 1.7 | 0.00 | 0.00 | 0.00 | 73 | 1017.9 |
| 20260505220748 | 60 | 358 | 1.7 | 2.6 | 0.00 | 0.00 | 0.00 | 74 | 1017.9 |
| 20260505220245 | 62 | 94 | 1.7 | 2.6 | 0.00 | 0.00 | 0.00 | 73 | 1017.9 |
| 20260505215744 | 61 | 105 | 0.0 | 0.9 | 0.00 | 0.00 | 0.00 | 74 | 1018.2 |
| 20260505215241 | 61 | 104 | 0.9 | 0.9 | 0.00 | 0.00 | 0.00 | 73 | 1018.2 |
| 20260505214739 | 61 | 83 | 0.9 | 0.9 | 0.00 | 0.00 | 0.00 | 72 | 1018.2 |
| 20260505214236 | 61 | 140 | 0.0 | 0.9 | 0.00 | 0.00 | 0.00 | 74 | 1018.2 |
| 20260505213733 | 62 | 232 | 2.6 | 2.6 | 0.00 | 0.00 | 0.00 | 72 | 1018.2 |
| 20260505213230 | 62 | 98 | 0.0 | 1.7 | 0.00 | 0.00 | 0.00 | 73 | 1018.2 |
| 20260505212726 | 60 | 185 | 0.0 | 0.9 | 0.00 | 0.00 | 0.00 | 75 | 1018.2 |
| 20260505212224 | 60 | 61 | 0.9 | 1.7 | 0.00 | 0.00 | 0.00 | 76 | 1018.2 |
| 20260505211721 | 59 | 108 | 0.0 | 0.9 | 0.00 | 0.00 | 0.00 | 78 | 1018.2 |
| 20260505211218 | 58 | 103 | 0.9 | 2.6 | 0.00 | 0.00 | 0.00 | 78 | 1018.2 |
| 20260505210714 | 59 | 72 | 1.7 | 2.6 | 0.00 | 0.00 | 0.00 | 77 | 1018.2 |
| 20260505210211 | 59 | 53 | 1.7 | 2.6 | 0.00 | 0.00 | 0.00 | 78 | 1018.2 |
| 20260505205709 | 58 | 56 | 0.9 | 1.7 | 0.00 | 0.00 | 0.00 | 79 | 1018.2 |